Location: Newark
(33.9035°S, 18.4112°E)
Time: 04:21:23
(UTC+00:00)

STARLINK-1099 - Pass Details

Date: 25 January 2020
Orbit: 548 x 551 km, 53.0° (Epoch: 21 February)

Event Time Altitude Azimuth Distance (km) Brightness Sun altitude
Exits shadow 00:25:20 16° 123° (ESE) 1,486 6.3 -33.1°
Drops below altitude 10° 00:26:16 10° 126° (SE) 1,841 6.9 -33.0°
Enters shadow 01:25:45 -64° 312° (NW) 12,055 10.4 -26.4°
